DLH091 EDDK-EDDH

Flight info

Callsign DLH091
Flight time 0h 46m
Altitude 24000
Route PODIP4X PODIP Y867 PELUN DCT ANZIV DCT WRB Y867 TOLGI DCT SAS P605 NOLGO NOLGO3P
Aircraft B738/M-SDE2E3FGHIRWXY/LB1

Departure

Time 2026-04-22 19:55
Airport Cologne Bonn Airport (EDDK)

Arrival

Time 2026-04-22 20:42
Airport Hamburg Helmut Schmidt Airport (EDDH)
Time Latitude Longitude Altitude Speed Heading
2026-04-22 19:09 50.87918 7.12483 245 ft 0 kts 288°
2026-04-22 19:37 50.87918 7.12482 245 ft 0 kts 288°
2026-04-22 19:38 50.87917 7.12488 245 ft 2 kts 288°
2026-04-22 19:38 50.87913 7.12507 246 ft 0 kts 288°
2026-04-22 19:39 50.87911 7.12525 246 ft 2 kts 264°
2026-04-22 19:39 50.87915 7.12547 247 ft 2 kts 236°
2026-04-22 19:39 50.87926 7.12564 247 ft 2 kts 205°
2026-04-22 19:39 50.87940 7.12569 247 ft 2 kts 176°
2026-04-22 19:40 50.87955 7.12563 247 ft 2 kts 146°
2026-04-22 19:40 50.87960 7.12555 246 ft 1 kts 131°
2026-04-22 19:40 50.87964 7.12550 246 ft 0 kts 135°
2026-04-22 19:45 50.87963 7.12551 246 ft 0 kts 130°
2026-04-22 19:46 50.87963 7.12556 246 ft 0 kts 88°
2026-04-22 19:46 50.87980 7.12571 246 ft 7 kts 18°
2026-04-22 19:46 50.88002 7.12594 246 ft 3 kts 62°
2026-04-22 19:46 50.88002 7.12608 246 ft 0 kts 116°
2026-04-22 19:48 50.88002 7.12611 246 ft 0 kts 108°
2026-04-22 19:48 50.87999 7.12620 246 ft 0 kts 109°
2026-04-22 19:48 50.87997 7.12629 246 ft 3 kts 112°
2026-04-22 19:49 50.87991 7.12660 246 ft 2 kts 101°
2026-04-22 19:49 50.87990 7.12671 246 ft 0 kts 99°
2026-04-22 19:52 50.87989 7.12674 246 ft 1 kts 99°
2026-04-22 19:52 50.87993 7.12731 246 ft 6 kts 73°
2026-04-22 19:52 50.87997 7.12752 246 ft 0 kts 73°
2026-04-22 19:54 50.88004 7.12789 246 ft 12 kts 75°
2026-04-22 19:54 50.87999 7.12949 243 ft 15 kts 111°
2026-04-22 19:54 50.87960 7.13033 243 ft 0 kts 137°
2026-04-22 19:55 50.87888 7.13139 245 ft 58 kts 136°
2026-04-22 19:55 50.87295 7.14000 277 ft 164 kts 135°
2026-04-22 19:55 50.86338 7.15294 968 ft 194 kts 137°
2026-04-22 19:56 50.85260 7.16766 1827 ft 221 kts 136°
2026-04-22 19:56 50.84146 7.18300 2935 ft 219 kts 135°
2026-04-22 19:56 50.82965 7.20051 3164 ft 240 kts 135°
2026-04-22 19:56 50.81760 7.21911 3405 ft 244 kts 126°
2026-04-22 19:57 50.81113 7.24335 3596 ft 241 kts 92°
2026-04-22 19:57 50.81137 7.26953 3848 ft 239 kts 83°
2026-04-22 19:57 50.81105 7.29610 4110 ft 242 kts 93°
2026-04-22 19:57 50.80864 7.32232 4363 ft 245 kts 96°
2026-04-22 19:58 50.80596 7.34912 4621 ft 246 kts 96°
2026-04-22 19:58 50.80341 7.37568 4872 ft 248 kts 95°
2026-04-22 19:58 50.80089 7.40277 5150 ft 248 kts 95°
2026-04-22 19:58 50.79841 7.42963 5597 ft 251 kts 95°
2026-04-22 19:59 50.79590 7.45711 6050 ft 256 kts 95°
2026-04-22 20:00 50.80113 7.61964 8753 ft 257 kts 38°
2026-04-22 20:00 50.81456 7.63837 9213 ft 261 kts 37°
2026-04-22 20:01 50.82838 7.65763 9666 ft 265 kts 38°
2026-04-22 20:01 50.84209 7.67689 10111 ft 269 kts 38°
2026-04-22 20:01 50.85653 7.69652 10556 ft 284 kts 39°
2026-04-22 20:01 50.87188 7.71698 11012 ft 287 kts 39°
2026-04-22 20:02 50.88665 7.73793 11462 ft 293 kts 40°
2026-04-22 20:02 50.90194 7.76072 11926 ft 318 kts 40°
2026-04-22 20:02 50.91875 7.78494 12378 ft 343 kts 39°
2026-04-22 20:02 50.93691 7.81174 12829 ft 368 kts 45°
2026-04-22 20:03 50.95244 7.84524 13281 ft 391 kts 57°
2026-04-22 20:03 50.96643 7.88239 13719 ft 402 kts 58°
2026-04-22 20:03 50.98045 7.92054 14162 ft 406 kts 58°
2026-04-22 20:03 50.99452 7.95882 14602 ft 410 kts 58°
2026-04-22 20:04 51.00885 7.99777 15049 ft 415 kts 58°
2026-04-22 20:04 51.02334 8.03717 15495 ft 419 kts 58°
2026-04-22 20:04 51.03821 8.07762 15949 ft 424 kts 58°
2026-04-22 20:04 51.05291 8.11764 16392 ft 428 kts 58°
2026-04-22 20:05 51.06787 8.15846 16840 ft 432 kts 57°
2026-04-22 20:05 51.08317 8.20026 17296 ft 436 kts 57°
2026-04-22 20:05 51.09831 8.24170 17741 ft 440 kts 57°
2026-04-22 20:05 51.11320 8.28264 18179 ft 444 kts 57°
2026-04-22 20:06 51.12841 8.32463 18623 ft 448 kts 57°
2026-04-22 20:06 51.14410 8.36798 19076 ft 452 kts 57°
2026-04-22 20:06 51.15988 8.41168 19530 ft 456 kts 57°
2026-04-22 20:06 51.17564 8.45540 19979 ft 460 kts 57°
2026-04-22 20:07 51.19203 8.49845 20422 ft 462 kts 52°
2026-04-22 20:07 51.21127 8.53976 20878 ft 463 kts 47°
2026-04-22 20:07 51.23128 8.57961 21327 ft 467 kts 46°
2026-04-22 20:07 51.25206 8.62032 21782 ft 471 kts 46°
2026-04-22 20:08 51.27279 8.66067 22232 ft 474 kts 46°
2026-04-22 20:08 51.29280 8.69938 22660 ft 478 kts 46°
2026-04-22 20:08 51.31367 8.73964 23103 ft 482 kts 46°
2026-04-22 20:08 51.33498 8.78075 23550 ft 486 kts 45°
2026-04-22 20:09 51.35637 8.82200 23997 ft 490 kts 45°
2026-04-22 20:09 51.37808 8.86386 24324 ft 494 kts 45°
2026-04-22 20:09 51.40014 8.90644 24341 ft 494 kts 45°
2026-04-22 20:09 51.42175 8.94818 24345 ft 492 kts 45°
2026-04-22 20:10 51.44342 8.99009 24346 ft 490 kts 45°
2026-04-22 20:10 51.46492 9.03172 24344 ft 489 kts 45°
2026-04-22 20:10 51.48715 9.07321 24344 ft 486 kts 42°
2026-04-22 20:10 51.51090 9.11094 24345 ft 480 kts 35°
2026-04-22 20:11 51.53609 9.14582 24345 ft 479 kts 33°
2026-04-22 20:11 51.56160 9.18013 24344 ft 478 kts 33°
2026-04-22 20:11 51.58694 9.21384 24344 ft 478 kts 33°
2026-04-22 20:11 51.61234 9.24744 24344 ft 478 kts 33°
2026-04-22 20:12 51.63826 9.28161 24344 ft 478 kts 32°
2026-04-22 20:12 51.66384 9.31527 24344 ft 478 kts 32°
2026-04-22 20:12 51.68098 9.33780 24344 ft 478 kts 32°
2026-04-22 20:12 51.71515 9.38269 24344 ft 478 kts 32°
2026-04-22 20:13 51.74094 9.41658 24344 ft 478 kts 32°
2026-04-22 20:13 51.76644 9.45011 24344 ft 478 kts 32°
2026-04-22 20:13 51.79245 9.48381 24342 ft 475 kts 29°
2026-04-22 20:13 51.81944 9.51304 24344 ft 469 kts 23°
2026-04-22 20:14 51.84816 9.53645 24341 ft 459 kts 12°
2026-04-22 20:14 51.87840 9.55129 24350 ft 450 kts
2026-04-22 20:14 51.90859 9.56290 24343 ft 449 kts
2026-04-22 20:14 51.93903 9.57423 24343 ft 449 kts
2026-04-22 20:15 51.96875 9.58537 24336 ft 436 kts
2026-04-22 20:15 51.99766 9.59638 24310 ft 412 kts
2026-04-22 20:15 52.02472 9.60665 24102 ft 396 kts
2026-04-22 20:15 52.05114 9.61654 23858 ft 389 kts
2026-04-22 20:16 52.07765 9.62640 23538 ft 386 kts
2026-04-22 20:16 52.10377 9.63611 23238 ft 388 kts
2026-04-22 20:16 52.12997 9.64587 22944 ft 390 kts
2026-04-22 20:16 52.15610 9.65566 22646 ft 389 kts
2026-04-22 20:17 52.18250 9.66559 22344 ft 387 kts
2026-04-22 20:17 52.20859 9.67543 22044 ft 385 kts
2026-04-22 20:17 52.23428 9.68514 21747 ft 383 kts
2026-04-22 20:17 52.26017 9.69494 21447 ft 382 kts
2026-04-22 20:18 52.28580 9.70467 21148 ft 380 kts
2026-04-22 20:18 52.31122 9.71433 20851 ft 379 kts
2026-04-22 20:18 52.33675 9.72404 20551 ft 377 kts
2026-04-22 20:18 52.36216 9.73372 20166 ft 377 kts
2026-04-22 20:19 52.38766 9.74344 19661 ft 374 kts
2026-04-22 20:19 52.41266 9.75300 19160 ft 369 kts
2026-04-22 20:19 52.43749 9.76250 18661 ft 367 kts
2026-04-22 20:19 52.46216 9.77195 18161 ft 364 kts
2026-04-22 20:20 52.48677 9.78139 17659 ft 362 kts
2026-04-22 20:20 52.51079 9.79061 17165 ft 359 kts
2026-04-22 20:20 52.53499 9.79991 16664 ft 356 kts
2026-04-22 20:20 52.55900 9.80915 16162 ft 353 kts
2026-04-22 20:21 52.58266 9.81827 15664 ft 351 kts
2026-04-22 20:21 52.60616 9.82734 15349 ft 344 kts
2026-04-22 20:21 52.62935 9.83632 15358 ft 348 kts
2026-04-22 20:21 52.65283 9.84541 15337 ft 347 kts
2026-04-22 20:22 52.67627 9.85450 15344 ft 348 kts
2026-04-22 20:22 52.69988 9.86365 15343 ft 349 kts
2026-04-22 20:22 52.72353 9.87283 15344 ft 349 kts
2026-04-22 20:22 52.74700 9.88195 15344 ft 348 kts
2026-04-22 20:23 52.77057 9.89112 15344 ft 348 kts
2026-04-22 20:23 52.79420 9.90031 15343 ft 348 kts
2026-04-22 20:23 52.81764 9.90945 15344 ft 348 kts
2026-04-22 20:23 52.84136 9.91869 15344 ft 348 kts
2026-04-22 20:24 52.86484 9.92784 15350 ft 357 kts
2026-04-22 20:24 52.88957 9.93743 15345 ft 371 kts
2026-04-22 20:24 52.91470 9.94726 15341 ft 373 kts
2026-04-22 20:24 52.93986 9.95715 15343 ft 373 kts
2026-04-22 20:25 52.96500 9.96705 15344 ft 372 kts
2026-04-22 20:25 52.98988 9.97682 15338 ft 365 kts
2026-04-22 20:25 53.01455 9.98653 15343 ft 361 kts
2026-04-22 20:25 53.03897 9.99610 15345 ft 364 kts
2026-04-22 20:26 53.06359 10.00576 15344 ft 365 kts
2026-04-22 20:26 53.08831 10.01549 15344 ft 366 kts
2026-04-22 20:26 53.11299 10.02524 15344 ft 367 kts 10°
2026-04-22 20:26 53.13771 10.03502 15344 ft 367 kts 10°
2026-04-22 20:27 53.16244 10.04485 15290 ft 367 kts 10°
2026-04-22 20:27 53.18693 10.05462 14992 ft 352 kts 10°
2026-04-22 20:27 53.21057 10.06403 14679 ft 349 kts 10°
2026-04-22 20:27 53.23412 10.07336 14312 ft 350 kts 10°
2026-04-22 20:28 53.25742 10.08261 13943 ft 347 kts 10°
2026-04-22 20:28 53.28079 10.09191 13556 ft 344 kts 11°
2026-04-22 20:28 53.30386 10.10111 13130 ft 342 kts 11°
2026-04-22 20:28 53.32705 10.11036 12727 ft 338 kts 11°
2026-04-22 20:29 53.34947 10.11949 12332 ft 337 kts 14°
2026-04-22 20:29 53.37142 10.13354 11929 ft 336 kts 22°
2026-04-22 20:29 53.39247 10.14967 11529 ft 328 kts 23°
2026-04-22 20:29 53.41257 10.16533 11117 ft 311 kts 23°
2026-04-22 20:30 53.43165 10.18030 10723 ft 304 kts 23°
2026-04-22 20:30 53.45081 10.19543 10293 ft 303 kts 23°
2026-04-22 20:30 53.46959 10.21033 9799 ft 301 kts 23°
2026-04-22 20:30 53.48847 10.22540 9295 ft 297 kts 23°
2026-04-22 20:31 53.50682 10.24012 8798 ft 293 kts 23°
2026-04-22 20:31 53.52488 10.25468 8304 ft 290 kts 23°
2026-04-22 20:31 53.54310 10.26943 7795 ft 284 kts 23°
2026-04-22 20:31 53.56038 10.28350 7295 ft 275 kts 23°
2026-04-22 20:32 53.57733 10.29739 6792 ft 267 kts 23°
2026-04-22 20:32 53.59367 10.31083 6295 ft 261 kts 23°
2026-04-22 20:32 53.60970 10.32406 5795 ft 256 kts 23°
2026-04-22 20:32 53.62545 10.33708 5296 ft 251 kts 23°
2026-04-22 20:33 53.64075 10.34976 4996 ft 240 kts 23°
2026-04-22 20:33 53.65561 10.36212 4995 ft 232 kts 23°
2026-04-22 20:33 53.66984 10.37400 4990 ft 229 kts 23°
2026-04-22 20:33 53.68417 10.38556 4988 ft 228 kts 16°
2026-04-22 20:34 53.69949 10.38825 4747 ft 219 kts 343°
2026-04-22 20:34 53.71335 10.37983 4340 ft 210 kts 333°
2026-04-22 20:34 53.72686 10.36990 3948 ft 213 kts 333°
2026-04-22 20:34 53.74022 10.35999 3627 ft 211 kts 333°
2026-04-22 20:35 53.75376 10.34992 3364 ft 210 kts 333°
2026-04-22 20:35 53.76711 10.33994 3108 ft 210 kts 333°
2026-04-22 20:35 53.78021 10.32977 2982 ft 206 kts 327°
2026-04-22 20:35 53.78974 10.31243 2984 ft 204 kts 291°
2026-04-22 20:36 53.78991 10.28905 2992 ft 205 kts 249°
2026-04-22 20:36 53.78045 10.27220 3013 ft 202 kts 210°
2026-04-22 20:36 53.76849 10.26059 2984 ft 192 kts 225°
2026-04-22 20:36 53.76025 10.24495 2997 ft 170 kts 233°
2026-04-22 20:37 53.75247 10.23013 2998 ft 165 kts 229°
2026-04-22 20:37 53.74459 10.21617 3003 ft 166 kts 229°
2026-04-22 20:37 53.73635 10.20267 2991 ft 166 kts 228°
2026-04-22 20:37 53.72864 10.18819 2903 ft 168 kts 232°
2026-04-22 20:38 53.72118 10.17306 2695 ft 164 kts 233°
2026-04-22 20:38 53.71407 10.15855 2481 ft 160 kts 233°
2026-04-22 20:38 53.70696 10.14405 2272 ft 160 kts 233°
2026-04-22 20:38 53.70009 10.13004 2057 ft 154 kts 233°
2026-04-22 20:39 53.69318 10.11594 1849 ft 154 kts 233°
2026-04-22 20:39 53.68631 10.10191 1555 ft 155 kts 233°
2026-04-22 20:39 53.67977 10.08869 1269 ft 145 kts 233°
2026-04-22 20:39 53.67348 10.07621 1086 ft 136 kts 233°
2026-04-22 20:40 53.66749 10.06393 988 ft 133 kts 234°
2026-04-22 20:40 53.66167 10.05175 878 ft 132 kts 234°
2026-04-22 20:40 53.65588 10.03995 733 ft 130 kts 233°
2026-04-22 20:40 53.65004 10.02813 537 ft 131 kts 233°
2026-04-22 20:41 53.64435 10.01673 334 ft 125 kts 233°
2026-04-22 20:41 53.63877 10.00538 197 ft 128 kts 233°
2026-04-22 20:41 53.63314 9.99391 64 ft 121 kts 233°
2026-04-22 20:41 53.62922 9.98589 63 ft 54 kts 231°
2026-04-22 20:42 53.62725 9.98183 63 ft 36 kts 228°
2026-04-22 20:42 53.62598 9.97939 62 ft 14 kts 230°
2026-04-22 20:42 53.62530 9.97807 62 ft 16 kts 217°
2026-04-22 20:42 53.62450 9.97813 62 ft 9 kts 143°
2026-04-22 20:43 53.62428 9.97888 62 ft 7 kts 86°
2026-04-22 20:43 53.62443 9.98023 63 ft 16 kts 69°
2026-04-22 20:43 53.62510 9.98191 63 ft 17 kts 51°
2026-04-22 20:43 53.62585 9.98343 62 ft 16 kts 49°
2026-04-22 20:44 53.62655 9.98482 63 ft 15 kts 50°
2026-04-22 20:44 53.62718 9.98610 62 ft 13 kts 50°
2026-04-22 20:44 53.62779 9.98729 63 ft 14 kts 50°
2026-04-22 20:44 53.62853 9.98883 62 ft 19 kts 50°
2026-04-22 20:45 53.62944 9.99066 62 ft 19 kts 50°
2026-04-22 20:45 53.62978 9.99135 63 ft 11 kts 50°
2026-04-22 20:45 53.63049 9.99281 62 ft 18 kts 53°
2026-04-22 20:45 53.63119 9.99447 63 ft 16 kts 53°
2026-04-22 20:46 53.63299 9.99797 62 ft 21 kts 48°
2026-04-22 20:46 53.63397 9.99995 63 ft 21 kts 49°
2026-04-22 20:46 53.63427 10.00128 62 ft 7 kts 118°
2026-04-22 20:47 53.63408 10.00176 62 ft 6 kts 131°
2026-04-22 20:47 53.63338 10.00198 62 ft 11 kts 174°
2026-04-22 20:47 53.63261 10.00207 62 ft 11 kts 176°
2026-04-22 20:47 53.63206 10.00236 63 ft 5 kts 120°
2026-04-22 20:48 53.63207 10.00314 62 ft 6 kts 83°
2026-04-22 20:48 53.63210 10.00362 62 ft 0 kts 84°